Satellite-Ground Cal/Val Region Overpasses Predictions

Prediction of Satellite NPP Overpassing Cal/Val Region: PacNW

Region Location: (Latitude: 10.00, Longitude: 139.50) to (Latitude: 22.70, Longitude: 165.60).

Table of predicted overpasses for the next 14.0 days since TLE Epoch: 11/18/2016
Interval Starting Time Starting Location Ending Time Ending Location
1 11/19/2016 02:27:18 ( 10.05, 162.96) 11/19/2016 02:30:53 ( 22.68, 159.96)
2 11/19/2016 14:59:11 ( 22.65, 160.18) 11/19/2016 15:02:46 ( 10.03, 157.19)
3 11/20/2016 02:10:51 ( 19.13, 165.59) 11/20/2016 02:11:51 ( 22.64, 164.72)
4 11/20/2016 03:49:46 ( 10.03, 142.35) 11/20/2016 03:53:10 ( 22.01, 139.51)
5 11/20/2016 14:40:08 ( 22.69, 164.95) 11/20/2016 14:43:44 ( 10.01, 161.94)
6 11/20/2016 16:21:38 ( 22.68, 139.57) 11/20/2016 16:21:42 ( 22.45, 139.51)
7 11/21/2016 03:30:44 ( 10.05, 147.10) 11/21/2016 03:34:19 ( 22.68, 144.10)
8 11/21/2016 16:02:37 ( 22.66, 144.32) 11/21/2016 16:06:12 ( 10.04, 141.32)
9 11/22/2016 03:11:42 ( 10.02, 151.86) 11/22/2016 03:15:17 ( 22.65, 148.86)
10 11/22/2016 15:43:34 ( 22.69, 149.09) 11/22/2016 15:47:10 ( 10.01, 146.07)
11 11/23/2016 02:52:40 ( 10.05, 156.61) 11/23/2016 02:56:15 ( 22.67, 153.61)
12 11/23/2016 15:24:33 ( 22.66, 153.84) 11/23/2016 15:28:08 ( 10.04, 150.84)
13 11/24/2016 02:33:38 ( 10.02, 161.37) 11/24/2016 02:37:13 ( 22.64, 158.37)
14 11/24/2016 15:05:31 ( 22.69, 158.60) 11/24/2016 15:09:07 ( 10.02, 155.59)
15 11/25/2016 02:15:15 ( 12.34, 165.60) 11/25/2016 02:18:11 ( 22.67, 163.12)
16 11/25/2016 03:56:06 ( 10.05, 140.75) 11/25/2016 03:57:37 ( 15.40, 139.51)
17 11/25/2016 14:46:29 ( 22.67, 163.35) 11/25/2016 14:50:04 ( 10.05, 160.35)
18 11/26/2016 03:37:04 ( 10.02, 145.51) 11/26/2016 03:40:39 ( 22.65, 142.51)
19 11/26/2016 14:30:26 ( 12.19, 165.60) 11/26/2016 14:31:03 ( 10.02, 165.10)
20 11/26/2016 16:08:57 ( 22.69, 142.74) 11/26/2016 16:12:33 ( 10.01, 139.73)
21 11/27/2016 03:18:02 ( 10.05, 150.26) 11/27/2016 03:21:37 ( 22.68, 147.26)
22 11/27/2016 15:49:55 ( 22.66, 147.49) 11/27/2016 15:53:30 ( 10.04, 144.49)
23 11/28/2016 02:59:00 ( 10.02, 155.02) 11/28/2016 03:02:35 ( 22.65, 152.02)
24 11/28/2016 15:30:53 ( 22.69, 152.25) 11/28/2016 15:34:29 ( 10.02, 149.24)
25 11/29/2016 02:39:58 ( 10.05, 159.77) 11/29/2016 02:43:33 ( 22.68, 156.77)
26 11/29/2016 15:11:51 ( 22.66, 157.00) 11/29/2016 15:15:26 ( 10.05, 154.00)
27 11/30/2016 02:20:56 ( 10.02, 164.53) 11/30/2016 02:24:31 ( 22.65, 161.54)
28 11/30/2016 14:52:49 ( 22.69, 161.76) 11/30/2016 14:56:25 ( 10.02, 158.75)
29 12/01/2016 03:43:23 ( 10.00, 143.92) 12/01/2016 03:46:59 ( 22.69, 140.91)
30 12/01/2016 14:34:51 ( 18.91, 165.59) 12/01/2016 14:37:22 ( 10.05, 163.51)
31 12/01/2016 16:15:17 ( 22.66, 141.14) 12/01/2016 16:17:11 ( 15.97, 139.51)
32 12/02/2016 03:24:22 ( 10.03, 148.67) 12/02/2016 03:27:57 ( 22.66, 145.67)


NCC Satellite Cal/Val Overpasses Prediction Service
